Home > Weather > Walvis Bay > Past weeks

Flag for Namibia Weather for the Past 2 Weeks in Walvis Bay, Namibia

Now
72 °F

Mild.


Feels Like: 76 °F
Forecast: 60 / 71 °F
Wind: 14 mph from West

Location: Walvis Bay

Current Time: Apr 30, 2016 at 2:44:32 PM

Latest Report: Apr 30, 2016 at 2:00 PM


Visibility: N/A

Pressure: 29.95 "Hg

Humidity: 57%

Dew Point: 55 °F

Location of Walvis BayLocation

Historic Weather in Walvis Bay — Graph

°F

Walvis Bay Temperature Yesterday

Maximum temperature yesterday: 73 °F (at 1:00 PM)
Minimum temperature yesterday: 55 °F (at 6:00 AM)
Average temperature yesterday: 63 °F

High & Low Weather Summary for the Past Weeks

 TemperatureHumidityPressure
High108 °F (Apr 16, 12:00 PM)100% (Apr 22, 5:00 AM)30.07 "Hg (Apr 22, 5:00 AM)
Low52 °F (Apr 23, 2:00 AM)10% (Apr 16, 11:00 AM)29.83 "Hg (Apr 15, 2:00 PM)
Average70 °F63%29.95 "Hg
* Reported Apr 15 1:00 PM — Apr 30 1:00 PM, Walvis Bay, Weather by CustomWeather, © 2016

Note: Actual official high and low records may vary slightly from our data, if they occured in-between our weather recording intervals... More about our weather records

Advertising

Walvis Bay Weather History for the Previous 24 Hours

Scroll right to see more
 ConditionsComfort  
Time TempWeatherWind HumidityBarometerVisibility
1:00 PM
Sat, Apr 30
72 °FSunny.9 mph57%29.98 "Hg10 mi
12:00 PM70 °FSunny.6 mph60%30.01 "Hg10 mi
11:00 AM66 °FSunny.3 mph68%30.01 "Hg10 mi
10:00 AM61 °FPassing clouds.2 mph88%30.04 "HgN/A
9:00 AM55 °FCool.2 mph94%30.04 "HgN/A
8:00 AM54 °FFog.2 mph94%30.04 "Hg2 mi
7:00 AM52 °FFog.2 mph94%30.01 "Hg2 mi
6:00 AM52 °FFog.3 mph94%29.98 "Hg1 mi
5:00 AM54 °FCool.6 mph94%29.95 "HgN/A
4:00 AM54 °FCool.3 mph94%29.95 "HgN/A
3:00 AM54 °FCool.2 mph94%29.95 "HgN/A
2:00 AM52 °FCool.7 mph94%29.95 "HgN/A
1:00 AM55 °FCool.2 mph88%29.95 "HgN/A
12:00 AM55 °FCool.6 mph94%29.95 "HgN/A
11:00 PM
Fri, Apr 29
57 °FCool.8 mph88%29.98 "HgN/A
10:00 PM59 °FCool.6 mph82%29.98 "HgN/A
9:00 PM61 °FCool.7 mph77%29.98 "HgN/A
5:00 PM68 °FMild.10 mph64%29.89 "HgN/A
4:00 PM72 °FSunny.13 mph57%29.89 "Hg10 mi
3:00 PM72 °FMild.16 mph57%29.89 "HgN/A
2:00 PM72 °FSunny.17 mph57%29.89 "Hg10 mi
Weather by CustomWeather, © 2016

See weather overviewHow to use our weather pages